Zurück zum Katalog

METEOR M2-3

AktivWetterSSO
NORAD 57166·PAYLOAD·🇷🇺 Russia

Gestartet Jun 27, 2023 von Vostochny Cosmodrome

Loading…

Nächste Überflüge (nächste 24 Stunden)

TLE

AktuellSource: Space-Track

Epoche: Sep 14, 2026, 14:41 UTC

1 57166U 23091A   26257.61240375 -.00000021  00000-0  95360-5 0  9992
2 57166  98.5996 310.7212 0002798 269.8227  90.2631 14.24052502167247

Verfolge METEOR M2-3 in Echtzeit mit AllMySat

Download on the App Store